sat.trackr.live / text

‹ back to catalog

ONEWEB-0393

NORAD 50473 · 2021-132E

PAYLOAD ACTIVE UNKNOWN

§ Identity

Operator
Country
UK
Launch date
2021-12-27
Launch site
TYMSC
Launch vehicle
Mass (kg)
RCS (m²)

Purposes: comms

External: N2YO · Heavens-Above · Gunter

§ Orbital elements

Epoch: 2026-05-25T02:57:42.124608Z

Period
109.29 min
Inclination
87.9153°
Eccentricity
0.0001976
Mean motion
13.17648878 rev/d
Perigee alt
1,192.2 km
Apogee alt
1,195.2 km
Semi-major
7,571.9 km
B*
7.0595e-5
RAAN
10.4508°
Arg perigee
87.1565°
Mean anomaly
272.9793°
Rev number
21,507

§ Raw data

ONEWEB-03931 50473U 21132E   26145.12340422  .00000040  00000+0  70595-4 0  99972 50473  87.9153  10.4508 0001976  87.1565 272.9793 13.17648878215074

JSON: /api/v1/satellites/50473 · /tle

For live sub-satellite position, see the globe view (requires WebGL).

§ Visibility from observer

Set your observer location to see the next 7 days of passes ≥ 10°. The values pass through the URL so the page stays shareable.

No JS? Fill the form by hand. The geolocation button needs JavaScript.